Year,Month,Day,Hour,Minute,Value (Times are PST for barometer in hPa)
2016,03,05,00,01,993.90
2016,03,05,00,02,993.90
2016,03,05,00,03,994.00
2016,03,05,00,04,993.90
2016,03,05,00,06,994.00
2016,03,05,00,07,994.00
2016,03,05,00,09,993.90
2016,03,05,00,11,993.90
2016,03,05,00,12,993.90
2016,03,05,00,13,993.90
2016,03,05,00,14,993.90
2016,03,05,00,15,993.90
2016,03,05,00,16,993.90
2016,03,05,00,17,993.90
2016,03,05,00,18,993.90
2016,03,05,00,19,993.80
2016,03,05,00,20,993.80
2016,03,05,00,21,993.90
2016,03,05,00,22,993.90
2016,03,05,00,23,993.80
2016,03,05,00,24,993.70
2016,03,05,00,25,993.80
2016,03,05,00,26,993.80
2016,03,05,00,27,993.80
2016,03,05,00,28,993.70
2016,03,05,00,29,993.70
2016,03,05,00,30,993.60
2016,03,05,00,31,993.70
2016,03,05,00,32,993.70
2016,03,05,00,33,993.70
2016,03,05,00,34,993.60
2016,03,05,00,35,993.60
2016,03,05,00,36,993.60
2016,03,05,00,37,993.50
2016,03,05,00,38,993.50
2016,03,05,00,39,993.50
2016,03,05,00,40,993.40
2016,03,05,00,41,993.40
2016,03,05,00,42,993.50
2016,03,05,00,43,993.50
2016,03,05,00,44,993.50
2016,03,05,00,45,993.50
2016,03,05,00,46,993.40
2016,03,05,00,47,993.40
2016,03,05,00,48,993.40
2016,03,05,00,49,993.40
2016,03,05,00,50,993.40
2016,03,05,00,51,993.30
2016,03,05,00,52,993.40
2016,03,05,00,53,993.20
2016,03,05,00,54,993.10
2016,03,05,00,55,993.20
2016,03,05,00,56,993.20
2016,03,05,00,57,993.20
2016,03,05,00,58,993.10
2016,03,05,00,59,993.10
2016,03,05,01,00,993.00
2016,03,05,01,01,992.90
2016,03,05,01,02,992.90
2016,03,05,01,03,992.90
2016,03,05,01,04,993.00
2016,03,05,01,05,993.00
2016,03,05,01,06,993.10
2016,03,05,01,07,993.20
2016,03,05,01,08,993.20
2016,03,05,01,09,993.10
2016,03,05,01,10,993.00
2016,03,05,01,11,992.90
2016,03,05,01,12,992.90
2016,03,05,01,13,992.90
2016,03,05,01,14,992.90
2016,03,05,01,15,992.90
2016,03,05,01,16,992.90
2016,03,05,01,17,992.90
2016,03,05,01,18,992.90
2016,03,05,01,19,992.90
2016,03,05,01,20,993.00
2016,03,05,01,21,993.00
2016,03,05,01,22,993.00
2016,03,05,01,23,993.00
2016,03,05,01,24,993.10
2016,03,05,01,25,993.10
2016,03,05,01,26,993.00
2016,03,05,01,27,992.90
2016,03,05,01,28,992.90
2016,03,05,01,29,992.90
2016,03,05,01,30,992.90
2016,03,05,01,31,992.90
2016,03,05,01,32,992.90
2016,03,05,01,33,992.90
2016,03,05,01,34,992.90
2016,03,05,01,35,992.70
2016,03,05,01,36,992.80
2016,03,05,01,37,992.80
2016,03,05,01,38,992.90
2016,03,05,01,39,992.90
2016,03,05,01,40,992.90
2016,03,05,01,41,992.90
2016,03,05,01,42,992.90
2016,03,05,01,43,993.00
2016,03,05,01,44,992.90
2016,03,05,01,45,992.90
2016,03,05,01,47,992.90
2016,03,05,01,48,992.90
2016,03,05,01,49,992.90
2016,03,05,01,51,992.80
2016,03,05,01,52,992.80
2016,03,05,01,53,992.80
2016,03,05,01,54,992.80
2016,03,05,01,56,992.70
2016,03,05,01,57,992.80
2016,03,05,01,58,992.80
2016,03,05,01,59,992.70
2016,03,05,02,01,992.70
2016,03,05,02,02,992.60
2016,03,05,02,03,992.50
2016,03,05,02,04,992.50
2016,03,05,02,06,992.50
2016,03,05,02,07,992.50
2016,03,05,02,08,992.50
2016,03,05,02,09,992.50
2016,03,05,02,11,992.50
2016,03,05,02,12,992.50
2016,03,05,02,13,992.50
2016,03,05,02,14,992.40
2016,03,05,02,16,992.40
2016,03,05,02,17,992.40
2016,03,05,02,18,992.40
2016,03,05,02,19,992.40
2016,03,05,02,21,992.60
2016,03,05,02,22,992.50
2016,03,05,02,23,992.40
2016,03,05,02,24,992.40
2016,03,05,02,26,992.40
2016,03,05,02,27,992.40
2016,03,05,02,28,992.30
2016,03,05,02,29,992.10
2016,03,05,02,31,992.20
2016,03,05,02,32,992.30
2016,03,05,02,33,992.40
2016,03,05,02,34,992.30
2016,03,05,02,36,992.10
2016,03,05,02,37,991.90
2016,03,05,02,38,992.00
2016,03,05,02,39,992.00
2016,03,05,02,41,991.90
2016,03,05,02,42,991.90
2016,03,05,02,43,991.90
2016,03,05,02,44,991.90
2016,03,05,02,46,991.90
2016,03,05,02,47,991.90
2016,03,05,02,48,992.00
2016,03,05,02,49,992.00
2016,03,05,02,51,992.10
2016,03,05,02,52,992.30
2016,03,05,02,53,992.40
2016,03,05,02,54,992.40
2016,03,05,02,56,992.40
2016,03,05,02,57,992.50
2016,03,05,02,58,992.50
2016,03,05,02,59,992.60
2016,03,05,03,00,992.80
2016,03,05,03,01,992.90
2016,03,05,03,02,992.90
2016,03,05,03,03,992.90
2016,03,05,03,04,992.90
2016,03,05,03,06,993.10
2016,03,05,03,07,993.30
2016,03,05,03,08,993.30
2016,03,05,03,09,993.40
2016,03,05,03,10,993.40
2016,03,05,03,11,993.40
2016,03,05,03,12,993.40
2016,03,05,03,13,993.40
2016,03,05,03,14,993.40
2016,03,05,03,15,993.60
2016,03,05,03,16,993.70
2016,03,05,03,17,993.60
2016,03,05,03,18,993.80
2016,03,05,03,19,993.90
2016,03,05,03,20,993.90
2016,03,05,03,21,994.00
2016,03,05,03,22,994.00
2016,03,05,03,23,994.30
2016,03,05,03,24,994.30
2016,03,05,03,25,994.00
2016,03,05,03,26,993.90
2016,03,05,03,27,993.90
2016,03,05,03,28,993.90
2016,03,05,03,29,993.90
2016,03,05,03,30,993.90
2016,03,05,03,31,993.90
2016,03,05,03,32,993.80
2016,03,05,03,33,993.80
2016,03,05,03,34,993.90
2016,03,05,03,35,993.90
2016,03,05,03,36,994.00
2016,03,05,03,37,994.10
2016,03,05,03,38,994.20
2016,03,05,03,39,994.40
2016,03,05,03,40,994.40
2016,03,05,03,41,994.50
2016,03,05,03,42,994.50
2016,03,05,03,43,994.40
2016,03,05,03,44,994.50
2016,03,05,03,45,994.50
2016,03,05,03,46,994.50
2016,03,05,03,47,994.60
2016,03,05,03,48,994.50
2016,03,05,03,49,994.50
2016,03,05,03,50,994.50
2016,03,05,03,51,994.60
2016,03,05,03,52,994.80
2016,03,05,03,53,994.90
2016,03,05,03,54,994.70
2016,03,05,03,55,994.80
2016,03,05,03,56,994.70
2016,03,05,03,57,994.70
2016,03,05,03,58,994.70
2016,03,05,03,59,994.70
2016,03,05,04,00,994.80
2016,03,05,04,01,994.80
2016,03,05,04,02,994.80
2016,03,05,04,03,994.90
2016,03,05,04,04,994.90
2016,03,05,04,05,994.90
2016,03,05,04,06,994.90
2016,03,05,04,07,994.90
2016,03,05,04,08,995.00
2016,03,05,04,09,995.00
2016,03,05,04,10,995.00
2016,03,05,04,11,995.00
2016,03,05,04,12,994.90
2016,03,05,04,13,994.90
2016,03,05,04,14,994.90
2016,03,05,04,15,994.90
2016,03,05,04,16,994.90
2016,03,05,04,17,994.90
2016,03,05,04,18,994.90
2016,03,05,04,19,994.90
2016,03,05,04,20,995.00
2016,03,05,04,21,995.00
2016,03,05,04,22,995.00
2016,03,05,04,23,995.00
2016,03,05,04,24,995.00
2016,03,05,04,25,995.00
2016,03,05,04,26,995.10
2016,03,05,04,27,995.10
2016,03,05,04,29,995.30
2016,03,05,04,31,995.40
2016,03,05,04,32,995.40
2016,03,05,04,34,995.30
2016,03,05,04,36,995.30
2016,03,05,04,37,995.30
2016,03,05,04,38,995.30
2016,03,05,04,39,995.40
2016,03,05,04,41,995.40
2016,03,05,04,42,995.40
2016,03,05,04,43,995.40
2016,03,05,04,44,995.50
2016,03,05,04,46,995.50
2016,03,05,04,47,995.50
2016,03,05,04,48,995.50
2016,03,05,04,49,995.50
2016,03,05,04,51,995.60
2016,03,05,04,52,995.60
2016,03,05,04,53,995.60
2016,03,05,04,54,995.60
2016,03,05,04,56,995.60
2016,03,05,04,57,995.70
2016,03,05,04,58,995.80
2016,03,05,04,59,995.80
2016,03,05,05,01,995.90
2016,03,05,05,02,995.90
2016,03,05,05,03,996.00
2016,03,05,05,04,996.00
2016,03,05,05,06,996.00
2016,03,05,05,07,996.00
2016,03,05,05,08,996.00
2016,03,05,05,09,996.00
2016,03,05,05,11,996.00
2016,03,05,05,12,996.00
2016,03,05,05,13,996.00
2016,03,05,05,14,996.00
2016,03,05,05,16,996.00
2016,03,05,05,17,996.10
2016,03,05,05,18,996.10
2016,03,05,05,19,996.10
2016,03,05,05,21,996.20
2016,03,05,05,22,996.30
2016,03,05,05,23,996.30
2016,03,05,05,24,996.30
2016,03,05,05,26,996.40
2016,03,05,05,27,996.40
2016,03,05,05,28,996.40
2016,03,05,05,29,996.40
2016,03,05,05,31,996.50
2016,03,05,05,32,996.50
2016,03,05,05,33,996.50
2016,03,05,05,34,996.50
2016,03,05,06,28,997.10
2016,03,05,06,29,997.10
2016,03,05,06,31,997.10
2016,03,05,06,32,997.10
2016,03,05,06,33,997.10
2016,03,05,06,34,997.10
2016,03,05,06,36,997.10
2016,03,05,06,37,997.10
2016,03,05,06,38,997.10
2016,03,05,06,39,997.10
2016,03,05,06,41,997.10
2016,03,05,06,42,997.20
2016,03,05,06,43,997.20
2016,03,05,06,44,997.30
2016,03,05,06,46,997.40
2016,03,05,06,47,997.50
2016,03,05,06,48,997.50
2016,03,05,06,49,997.50
2016,03,05,06,51,997.60
2016,03,05,06,52,997.60
2016,03,05,06,53,997.50
2016,03,05,06,54,997.50
2016,03,05,06,56,997.50
2016,03,05,06,57,997.50
2016,03,05,06,58,997.60
2016,03,05,06,59,997.60
2016,03,05,07,00,997.60
2016,03,05,07,01,997.60
2016,03,05,07,02,997.60
2016,03,05,07,03,997.60
2016,03,05,07,04,997.60
2016,03,05,07,05,997.60
2016,03,05,07,06,997.60
2016,03,05,07,07,997.60
2016,03,05,07,08,997.60
2016,03,05,07,09,997.60
2016,03,05,07,10,997.60
2016,03,05,07,11,997.60
2016,03,05,07,12,997.60
2016,03,05,07,13,997.60
2016,03,05,07,14,997.60
2016,03,05,07,15,997.60
2016,03,05,07,16,997.70
2016,03,05,07,17,997.70
2016,03,05,07,18,997.80
2016,03,05,07,19,997.80
2016,03,05,07,20,997.80
2016,03,05,07,21,997.80
2016,03,05,07,22,997.80
2016,03,05,07,23,997.80
2016,03,05,07,24,997.80
2016,03,05,07,25,997.80
2016,03,05,07,26,997.90
2016,03,05,07,27,997.90
2016,03,05,07,28,997.90
2016,03,05,07,29,997.90
2016,03,05,07,30,997.90
2016,03,05,07,31,997.90
2016,03,05,07,32,998.00
2016,03,05,07,33,998.00
2016,03,05,07,34,998.00
2016,03,05,07,35,998.00
2016,03,05,07,36,998.00
2016,03,05,07,37,998.10
2016,03,05,07,38,998.10
2016,03,05,07,39,998.10
2016,03,05,07,40,998.10
2016,03,05,07,41,998.10
2016,03,05,07,42,998.10
2016,03,05,07,43,998.10
2016,03,05,07,44,998.10
2016,03,05,07,45,998.10
2016,03,05,07,46,998.10
2016,03,05,07,47,998.10
2016,03,05,07,48,998.10
2016,03,05,07,49,998.10
2016,03,05,07,50,998.10
2016,03,05,07,51,998.20
2016,03,05,07,52,998.10
2016,03,05,07,53,998.20
2016,03,05,07,54,998.20
2016,03,05,07,55,998.20
2016,03,05,07,56,998.30
2016,03,05,07,57,998.30
2016,03,05,07,58,998.40
2016,03,05,07,59,998.30
2016,03,05,08,00,998.30
2016,03,05,08,01,998.50
2016,03,05,08,02,998.40
2016,03,05,08,03,998.50
2016,03,05,08,04,998.60
2016,03,05,08,05,998.60
2016,03,05,08,07,998.60
2016,03,05,08,09,998.60
2016,03,05,08,11,998.60
2016,03,05,08,12,998.60
2016,03,05,08,13,998.60
2016,03,05,08,14,998.70
2016,03,05,08,16,998.70
2016,03,05,08,17,998.80
2016,03,05,08,18,998.70
2016,03,05,08,19,998.80
2016,03,05,08,21,998.80
2016,03,05,08,22,998.90
2016,03,05,08,23,998.90
2016,03,05,08,24,998.90
2016,03,05,08,26,999.00
2016,03,05,08,27,999.00
2016,03,05,08,28,999.00
2016,03,05,08,29,999.10
2016,03,05,08,31,999.10
2016,03,05,08,32,999.10
2016,03,05,08,33,999.10
2016,03,05,08,34,999.10
2016,03,05,08,36,999.10
2016,03,05,08,37,999.10
2016,03,05,08,38,999.20
2016,03,05,08,39,999.20
2016,03,05,08,41,999.20
2016,03,05,08,42,999.20
2016,03,05,08,43,999.20
2016,03,05,08,44,999.20
2016,03,05,08,46,999.20
2016,03,05,08,47,999.20
2016,03,05,08,48,999.20
2016,03,05,08,49,999.20
2016,03,05,08,51,999.20
2016,03,05,08,52,999.20
2016,03,05,08,53,999.20
2016,03,05,08,54,999.20
2016,03,05,08,56,999.20
2016,03,05,08,57,999.20
2016,03,05,09,28,999.10
2016,03,05,09,29,999.20
2016,03,05,10,28,999.20
2016,03,05,10,29,999.20
2016,03,05,11,28,998.50
2016,03,05,11,29,998.50
2016,03,05,11,31,998.40
2016,03,05,11,32,998.40
2016,03,05,11,33,998.30
2016,03,05,11,34,998.30
2016,03,05,11,36,998.10
2016,03,05,11,37,998.10
2016,03,05,11,38,998.10
2016,03,05,11,39,998.10
2016,03,05,11,41,998.10
2016,03,05,11,42,998.10
2016,03,05,11,43,998.10
2016,03,05,11,44,998.10
2016,03,05,11,46,998.10
2016,03,05,11,47,998.10
2016,03,05,11,48,998.10
2016,03,05,11,49,998.10
2016,03,05,11,51,998.10
2016,03,05,11,52,998.10
2016,03,05,11,53,998.20
2016,03,05,11,54,998.20
2016,03,05,11,56,998.20
2016,03,05,11,57,998.10
2016,03,05,11,58,998.10
2016,03,05,11,59,998.10
2016,03,05,12,01,998.10
2016,03,05,12,02,998.10
2016,03,05,12,03,998.10
2016,03,05,12,04,998.00
2016,03,05,12,06,997.90
2016,03,05,12,07,998.00
2016,03,05,12,08,997.90
2016,03,05,12,09,997.90
2016,03,05,12,10,997.90
2016,03,05,12,11,997.90
2016,03,05,12,12,997.90
2016,03,05,12,13,997.80
2016,03,05,12,14,997.80
2016,03,05,12,15,997.80
2016,03,05,12,16,997.70
2016,03,05,12,17,997.70
2016,03,05,12,18,997.60
2016,03,05,12,19,997.60
2016,03,05,12,20,997.60
2016,03,05,12,21,997.60
2016,03,05,12,22,997.60
2016,03,05,12,23,997.60
2016,03,05,12,24,997.60
2016,03,05,12,25,997.70
2016,03,05,12,26,997.70
2016,03,05,12,27,997.70
2016,03,05,12,28,997.70
2016,03,05,12,29,997.70
2016,03,05,12,30,997.60
2016,03,05,12,31,997.60
2016,03,05,12,32,997.60
2016,03,05,12,33,997.60
2016,03,05,12,34,997.60
2016,03,05,12,35,997.60
2016,03,05,12,36,997.60
2016,03,05,12,37,997.60
2016,03,05,12,38,997.50
2016,03,05,12,39,997.50
2016,03,05,12,40,997.50
2016,03,05,12,41,997.50
2016,03,05,12,42,997.50
2016,03,05,12,43,997.50
2016,03,05,12,44,997.40
2016,03,05,12,45,997.40
2016,03,05,12,46,997.30
2016,03,05,12,47,997.30
2016,03,05,12,48,997.30
2016,03,05,12,49,997.20
2016,03,05,12,50,997.20
2016,03,05,12,51,997.20
2016,03,05,12,52,997.20
2016,03,05,12,53,997.20
2016,03,05,12,54,997.20
2016,03,05,12,55,997.20
2016,03,05,12,56,997.10
2016,03,05,12,57,997.10
2016,03,05,12,58,997.10
2016,03,05,12,59,997.10
2016,03,05,13,00,997.00
2016,03,05,13,01,997.00
2016,03,05,13,02,996.90
2016,03,05,13,03,996.90
2016,03,05,13,04,996.70
2016,03,05,13,05,996.70
2016,03,05,13,06,996.70
2016,03,05,13,07,996.60
2016,03,05,13,08,996.70
2016,03,05,13,09,996.60
2016,03,05,13,10,996.60
2016,03,05,13,11,996.60
2016,03,05,13,12,996.60
2016,03,05,13,13,996.60
2016,03,05,13,14,996.60
2016,03,05,13,15,996.60
2016,03,05,13,16,996.50
2016,03,05,13,17,996.50
2016,03,05,13,18,996.50
2016,03,05,13,19,996.50
2016,03,05,13,20,996.50
2016,03,05,13,21,996.50
2016,03,05,13,22,996.50
2016,03,05,13,23,996.50
2016,03,05,13,24,996.50
2016,03,05,13,25,996.50
2016,03,05,13,26,996.50
2016,03,05,13,27,996.50
2016,03,05,13,28,996.50
2016,03,05,13,29,996.40
2016,03,05,13,30,996.50
2016,03,05,13,31,996.40
2016,03,05,13,32,996.40
2016,03,05,13,33,996.40
2016,03,05,13,34,996.40
2016,03,05,13,35,996.40
2016,03,05,13,36,996.40
2016,03,05,13,37,996.40
2016,03,05,13,39,996.40
2016,03,05,13,41,996.40
2016,03,05,13,42,996.20
2016,03,05,13,44,996.20
2016,03,05,13,46,996.10
2016,03,05,13,47,996.10
2016,03,05,13,48,996.10
2016,03,05,13,49,996.10
2016,03,05,13,51,996.00
2016,03,05,13,52,996.00
2016,03,05,13,53,996.00
2016,03,05,13,54,996.00
2016,03,05,13,56,996.00
2016,03,05,13,57,996.00
2016,03,05,13,58,996.00
2016,03,05,13,59,996.00
2016,03,05,14,01,996.00
2016,03,05,14,02,996.00
2016,03,05,14,03,996.00
2016,03,05,14,04,996.00
2016,03,05,14,06,996.00
2016,03,05,14,07,996.00
2016,03,05,14,08,996.00
2016,03,05,14,09,996.00
2016,03,05,14,11,995.90
2016,03,05,14,12,995.90
2016,03,05,14,13,995.80
2016,03,05,14,14,995.80
2016,03,05,14,16,995.70
2016,03,05,14,17,995.60
2016,03,05,14,18,995.50
2016,03,05,14,19,995.50
2016,03,05,14,21,995.50
2016,03,05,14,22,995.40
2016,03,05,14,23,995.30
2016,03,05,14,24,995.20
2016,03,05,14,26,995.00
2016,03,05,14,27,995.00
2016,03,05,14,28,995.00
2016,03,05,14,29,994.90
2016,03,05,14,31,994.60
2016,03,05,14,32,994.60
2016,03,05,14,33,994.60
2016,03,05,14,34,994.50
2016,03,05,14,36,994.50
2016,03,05,14,37,994.50
2016,03,05,14,38,994.50
2016,03,05,14,39,994.40
2016,03,05,14,41,994.40
2016,03,05,14,42,994.30
2016,03,05,14,43,994.30
2016,03,05,14,44,994.30
2016,03,05,14,46,994.20
2016,03,05,14,47,994.10
2016,03,05,14,48,994.00
2016,03,05,14,49,994.00
2016,03,05,14,51,993.90
2016,03,05,14,52,993.90
2016,03,05,14,53,993.90
2016,03,05,14,54,993.90
2016,03,05,14,55,993.90
2016,03,05,14,56,994.00
2016,03,05,14,57,994.00
2016,03,05,14,58,994.00
2016,03,05,14,59,994.00
2016,03,05,15,00,994.00
2016,03,05,15,01,994.00
2016,03,05,15,02,993.90
2016,03,05,15,03,993.90
2016,03,05,15,04,993.90
2016,03,05,15,05,993.90
2016,03,05,15,06,993.80
2016,03,05,15,07,993.60
2016,03,05,15,08,993.50
2016,03,05,15,09,993.50
2016,03,05,15,10,993.50
2016,03,05,15,11,993.40
2016,03,05,15,12,993.40
2016,03,05,15,13,993.40
2016,03,05,15,14,993.40
2016,03,05,15,15,993.30
2016,03,05,15,16,993.10
2016,03,05,15,17,993.00
2016,03,05,15,18,992.90
2016,03,05,15,19,992.90
2016,03,05,15,20,992.90
2016,03,05,15,21,992.90
2016,03,05,15,22,992.90
2016,03,05,15,23,992.80
2016,03,05,15,24,992.80
2016,03,05,15,25,992.80
2016,03,05,15,26,992.70
2016,03,05,15,27,992.60
2016,03,05,15,28,992.60
2016,03,05,15,29,992.50
2016,03,05,15,30,992.50
2016,03,05,15,31,992.50
2016,03,05,15,32,992.50
2016,03,05,15,33,992.40
2016,03,05,15,34,992.40
2016,03,05,15,35,992.40
2016,03,05,15,36,992.40
2016,03,05,15,37,992.40
2016,03,05,15,38,992.40
2016,03,05,15,39,992.40
2016,03,05,15,40,992.40
2016,03,05,15,41,992.40
2016,03,05,15,42,992.40
2016,03,05,15,43,992.40
2016,03,05,15,44,992.40
2016,03,05,15,45,992.40
2016,03,05,15,46,992.40
2016,03,05,15,47,992.40
2016,03,05,15,48,992.40
2016,03,05,15,49,992.30
2016,03,05,15,50,992.30
2016,03,05,15,51,992.20
2016,03,05,15,52,992.20
2016,03,05,15,53,992.20
2016,03,05,15,54,992.30
2016,03,05,15,55,992.30
2016,03,05,15,56,992.30
2016,03,05,15,57,992.20
2016,03,05,15,58,992.10
2016,03,05,15,59,992.00
2016,03,05,16,00,992.00
2016,03,05,16,01,991.90
2016,03,05,16,02,991.90
2016,03,05,16,03,991.80
2016,03,05,16,04,991.80
2016,03,05,16,05,991.80
2016,03,05,16,06,991.80
2016,03,05,16,07,991.80
2016,03,05,16,08,991.80
2016,03,05,16,09,991.80
2016,03,05,16,10,991.80
2016,03,05,16,11,991.80
2016,03,05,16,12,991.80
2016,03,05,16,13,991.70
2016,03,05,16,14,991.60
2016,03,05,16,15,991.40
2016,03,05,16,16,991.40
2016,03,05,16,17,991.40
2016,03,05,16,18,991.30
2016,03,05,16,19,991.30
2016,03,05,16,20,991.30
2016,03,05,16,21,991.30
2016,03,05,16,22,991.30
2016,03,05,16,23,991.30
2016,03,05,16,24,991.20
2016,03,05,16,25,991.10
2016,03,05,16,26,991.00
2016,03,05,16,27,990.90
2016,03,05,16,28,990.90
2016,03,05,16,29,990.80
2016,03,05,16,31,990.70
2016,03,05,16,32,990.70
2016,03,05,16,33,990.60
2016,03,05,16,34,990.50
2016,03,05,16,36,990.30
2016,03,05,16,37,990.30
2016,03,05,16,38,990.30
2016,03,05,16,39,990.30
2016,03,05,16,41,990.30
2016,03,05,16,42,990.20
2016,03,05,16,43,990.20
2016,03,05,16,44,990.30
2016,03,05,16,46,990.30
2016,03,05,16,47,990.30
2016,03,05,16,48,990.30
2016,03,05,16,49,990.30
2016,03,05,16,51,990.30
2016,03,05,16,52,990.20
2016,03,05,16,53,990.10
2016,03,05,16,54,990.00
2016,03,05,16,56,990.00
2016,03,05,16,57,989.90
2016,03,05,16,58,989.90
2016,03,05,16,59,989.90
2016,03,05,17,01,989.80
2016,03,05,17,02,989.80
2016,03,05,17,03,989.80
2016,03,05,17,04,989.70
2016,03,05,17,06,989.70
2016,03,05,17,07,989.70
2016,03,05,17,08,989.70
2016,03,05,17,09,989.70
2016,03,05,17,11,989.70
2016,03,05,17,12,989.70
2016,03,05,17,13,989.70
2016,03,05,17,14,989.60
2016,03,05,17,16,989.40
2016,03,05,17,17,989.40
2016,03,05,17,18,989.40
2016,03,05,17,19,989.30
2016,03,05,17,21,989.30
2016,03,05,17,22,989.30
2016,03,05,17,23,989.20
2016,03,05,17,24,989.20
2016,03,05,17,26,989.20
2016,03,05,17,27,989.20
2016,03,05,17,28,989.20
2016,03,05,17,29,989.20
2016,03,05,17,31,989.10
2016,03,05,17,32,989.10
2016,03,05,17,33,989.00
2016,03,05,17,34,989.00
2016,03,05,17,36,988.90
2016,03,05,17,37,988.80
2016,03,05,17,38,988.80
2016,03,05,17,39,988.80
2016,03,05,17,40,988.70
2016,03,05,17,41,988.70
2016,03,05,17,42,988.70
2016,03,05,17,43,988.70
2016,03,05,17,44,988.70
2016,03,05,17,45,988.70
2016,03,05,17,46,988.70
2016,03,05,17,47,988.60
2016,03,05,17,48,988.50
2016,03,05,17,49,988.50
2016,03,05,17,50,988.40
2016,03,05,17,51,988.40
2016,03,05,17,52,988.40
2016,03,05,17,53,988.30
2016,03,05,17,54,988.30
2016,03,05,17,55,988.30
2016,03,05,17,56,988.20
2016,03,05,17,57,988.20
2016,03,05,17,58,988.20
2016,03,05,17,59,988.20
2016,03,05,18,00,988.20
2016,03,05,18,01,988.20
2016,03,05,18,02,988.20
2016,03,05,18,03,988.20
2016,03,05,18,04,988.10
2016,03,05,18,05,988.00
2016,03,05,18,06,988.00
2016,03,05,18,07,988.00
2016,03,05,18,08,987.90
2016,03,05,18,09,987.80
2016,03,05,18,10,987.80
2016,03,05,18,11,987.70
2016,03,05,18,12,987.70
2016,03,05,18,13,987.70
2016,03,05,18,14,987.70
2016,03,05,18,15,987.70
2016,03,05,18,16,987.60
2016,03,05,18,17,987.60
2016,03,05,18,18,987.60
2016,03,05,18,19,987.60
2016,03,05,18,20,987.60
2016,03,05,18,21,987.50
2016,03,05,18,22,987.50
2016,03,05,18,23,987.50
2016,03,05,18,24,987.40
2016,03,05,18,25,987.30
2016,03,05,18,26,987.30
2016,03,05,18,27,987.20
2016,03,05,18,28,987.20
2016,03,05,18,29,987.20
2016,03,05,18,30,987.20
2016,03,05,18,31,987.10
2016,03,05,18,32,987.10
2016,03,05,18,33,987.10
2016,03,05,18,34,987.10
2016,03,05,18,35,987.10
2016,03,05,18,36,987.00
2016,03,05,18,37,987.00
2016,03,05,18,38,986.90
2016,03,05,18,39,986.90
2016,03,05,18,40,986.90
2016,03,05,18,41,986.90
2016,03,05,18,42,986.90
2016,03,05,18,43,986.80
2016,03,05,18,44,986.80
2016,03,05,18,45,986.80
2016,03,05,18,46,986.70
2016,03,05,18,47,986.70
2016,03,05,18,48,986.70
2016,03,05,18,49,986.70
2016,03,05,18,50,986.70
2016,03,05,18,51,986.70
2016,03,05,18,52,986.70
2016,03,05,18,53,986.70
2016,03,05,18,54,986.60
2016,03,05,18,55,986.70
2016,03,05,18,56,986.60
2016,03,05,18,57,986.60
2016,03,05,18,58,986.60
2016,03,05,18,59,986.60
2016,03,05,19,00,986.60
2016,03,05,19,01,986.60
2016,03,05,19,02,986.60
2016,03,05,19,03,986.60
2016,03,05,19,04,986.60
2016,03,05,19,05,986.50
2016,03,05,19,06,986.50
2016,03,05,19,07,986.50
2016,03,05,19,09,986.50
2016,03,05,19,10,986.50
2016,03,05,19,12,986.40
2016,03,05,19,13,986.50
2016,03,05,19,14,986.40
2016,03,05,19,16,986.30
2016,03,05,19,17,986.20
2016,03,05,19,18,986.20
2016,03,05,19,19,986.20
2016,03,05,19,21,986.10
2016,03,05,19,22,986.10
2016,03,05,19,23,986.10
2016,03,05,19,24,986.10
2016,03,05,19,26,986.10
2016,03,05,19,27,986.10
2016,03,05,19,28,986.10
2016,03,05,19,29,986.10
2016,03,05,19,31,986.10
2016,03,05,19,32,986.10
2016,03,05,19,33,986.00
2016,03,05,19,34,985.90
2016,03,05,19,36,985.90
2016,03,05,19,37,985.90
2016,03,05,19,38,986.00
2016,03,05,19,39,986.00
2016,03,05,19,41,986.00
2016,03,05,19,42,986.00
2016,03,05,19,43,985.80
2016,03,05,19,44,985.80
2016,03,05,19,46,985.90
2016,03,05,19,47,985.80
2016,03,05,19,48,985.90
2016,03,05,19,49,985.90
2016,03,05,19,51,985.80
2016,03,05,19,52,985.80
2016,03,05,19,53,985.70
2016,03,05,19,54,985.80
2016,03,05,19,56,985.70
2016,03,05,19,57,985.60
2016,03,05,19,58,985.60
2016,03,05,19,59,985.60
2016,03,05,20,01,985.60
2016,03,05,20,02,985.60
2016,03,05,20,03,985.60
2016,03,05,20,04,985.60
2016,03,05,20,06,985.50
2016,03,05,20,07,985.40
2016,03,05,20,08,985.30
2016,03,05,20,09,985.20
2016,03,05,20,11,985.10
2016,03,05,20,12,985.10
2016,03,05,20,13,985.10
2016,03,05,20,14,985.10
2016,03,05,20,16,985.10
2016,03,05,20,17,985.10
2016,03,05,20,18,985.10
2016,03,05,20,19,985.10
2016,03,05,20,21,985.10
2016,03,05,20,22,985.10
2016,03,05,20,23,985.10
2016,03,05,20,24,985.10
2016,03,05,20,25,985.10
2016,03,05,20,26,985.10
2016,03,05,20,27,985.10
2016,03,05,20,28,985.10
2016,03,05,20,29,985.10
2016,03,05,20,30,985.10
2016,03,05,20,31,985.10
2016,03,05,20,32,985.10
2016,03,05,20,33,985.10
2016,03,05,20,34,985.10
2016,03,05,20,35,985.10
2016,03,05,20,36,985.10
2016,03,05,20,37,985.10
2016,03,05,20,38,985.10
2016,03,05,20,39,985.00
2016,03,05,20,40,985.00
2016,03,05,20,41,985.00
2016,03,05,20,42,985.00
2016,03,05,20,43,985.00
2016,03,05,20,44,985.00
2016,03,05,20,45,985.00
2016,03,05,20,46,985.00
2016,03,05,20,47,985.00
2016,03,05,20,48,985.00
2016,03,05,20,49,984.90
2016,03,05,20,50,984.90
2016,03,05,20,51,984.90
2016,03,05,20,52,984.70
2016,03,05,20,53,984.70
2016,03,05,20,54,984.70
2016,03,05,20,55,984.60
2016,03,05,20,56,984.60
2016,03,05,20,57,984.60
2016,03,05,20,58,984.60
2016,03,05,20,59,984.60
2016,03,05,21,00,984.60
2016,03,05,21,01,984.60
2016,03,05,21,02,984.60
2016,03,05,21,03,984.60
2016,03,05,21,04,984.60
2016,03,05,21,05,984.60
2016,03,05,21,06,984.60
2016,03,05,21,07,984.60
2016,03,05,21,08,984.60
2016,03,05,21,09,984.60
2016,03,05,21,10,984.60
2016,03,05,21,11,984.60
2016,03,05,21,12,984.60
2016,03,05,21,13,984.60
2016,03,05,21,14,984.60
2016,03,05,21,15,984.60
2016,03,05,21,16,984.60
2016,03,05,21,17,984.60
2016,03,05,21,18,984.60
2016,03,05,21,19,984.60
2016,03,05,21,20,984.60
2016,03,05,21,21,984.50
2016,03,05,21,22,984.50
2016,03,05,21,23,984.50
2016,03,05,21,24,984.50
2016,03,05,21,25,984.40
2016,03,05,21,26,984.40
2016,03,05,21,27,984.30
2016,03,05,21,28,984.20
2016,03,05,21,29,984.20
2016,03,05,21,30,984.20
2016,03,05,21,31,984.20
2016,03,05,21,32,984.30
2016,03,05,21,33,984.30
2016,03,05,21,34,984.30
2016,03,05,21,35,984.40
2016,03,05,21,36,984.30
2016,03,05,21,37,984.30
2016,03,05,21,38,984.30
2016,03,05,21,39,984.20
2016,03,05,21,40,984.10
2016,03,05,21,41,984.10
2016,03,05,21,42,984.10
2016,03,05,21,43,984.10